Location: St Paul
(33.4390°N, 83.7350°W)
Time: 19:36:30
(UTC-05:00)

Cosmos 2154 Rocket - Pass Details

Date: 06 October 2017
Orbit: 965 x 997 km, 82.9° (Epoch: 15 December)

Event Time Altitude Azimuth Distance (km) Brightness Sun altitude
Rises 19:44:42 0° 184° (S) 3,653 7.1 -7.6°
Reaches altitude 10° 19:47:11 10° 184° (S) 2,714 6.4 -8.1°
Maximum altitude 19:53:25 89° 108° (ESE) 986 4.1 -9.4°
Drops below altitude 10° 19:59:45 10° 6° (N) 2,751 6.3 -10.7°
Sets 20:02:17 0° 7° (N) 3,708 7.0 -11.2°
